This is the latest recevied weather packets stored in our database for station/object KI7CSN-13. If no packets are shown the sender has not sent any weather packets the latest 10 day(s).
| Time | Temp. | Humidity | Pressure | Rain* | Wind** | Luminosity | Snow |
|---|---|---|---|---|---|---|---|
| 1777793267 | 18.33° C | 23% | 983.5 hPa | 0 mm | - | - | - |
| 1777792967 | 18.33° C | 22% | 983.5 hPa | 0 mm | - | - | - |
| 1777792667 | 17.78° C | 24% | 983.5 hPa | 0 mm | - | - | - |
| 1777792367 | 17.78° C | 23% | 983.5 hPa | 0 mm | - | - | - |
| 1777792067 | 17.78° C | 23% | 983.5 hPa | 0 mm | - | - | - |
| 1777791767 | 17.78° C | 23% | 983.5 hPa | 0 mm | - | - | - |
| 1777791467 | 17.78° C | 23% | 983.7 hPa | 0 mm | - | - | - |
| 1777791167 | 17.22° C | 23% | 983.7 hPa | 0 mm | - | - | - |
| 1777790867 | 16.11° C | 25% | 983.8 hPa | 0 mm | - | - | - |
| 1777790567 | 16.67° C | 24% | 983.8 hPa | 0 mm | - | - | - |
| 1777790267 | 16.67° C | 23% | 983.9 hPa | 0 mm | - | - | - |
| 1777789967 | 16.67° C | 24% | 983.9 hPa | 0 mm | - | - | - |
| 1777789667 | 16.67° C | 23% | 983.9 hPa | 0 mm | - | - | - |
| 1777789367 | 16.11° C | 24% | 983.9 hPa | 0 mm | - | - | - |
| 1777789067 | 16.11° C | 24% | 983.9 hPa | 0 mm | - | - | - |
| 1777788767 | 16.11° C | 24% | 983.8 hPa | 0 mm | - | - | - |
| 1777788467 | 16.67° C | 24% | 983.7 hPa | 0 mm | - | - | - |
| 1777788167 | 16.67° C | 24% | 983.5 hPa | 0 mm | - | - | - |
| 1777787867 | 17.78° C | 22% | 983.5 hPa | 0 mm | - | - | - |
| 1777787567 | 18.89° C | 21% | 983.5 hPa | 0 mm | - | - | - |
| 1777787267 | 20° C | 21% | 983.7 hPa | 0 mm | - | - | - |
| 1777786967 | 20° C | 22% | 983.5 hPa | 0 mm | - | - | - |
| 1777786667 | 20° C | 22% | 983.5 hPa | 0 mm | - | - | - |
| 1777786367 | 20° C | 22% | 983.7 hPa | 0 mm | - | - | - |
| 1777786067 | 20° C | 22% | 983.7 hPa | 0 mm | - | - | - |
* Rain latest hour (hover to see other rain measurements)
** Current wind speed in m/s (hover to see current wind gust speed)